Location: Fort Frances
(48.6170°N, 93.4170°W)
Time: 02:21:40
(UTC-05:00)

ISS - All Passes

Search period start: 19 August 2017 00:00
Search period end: 29 August 2017 00:00
Orbit: 401 x 408 km, 51.6° (Epoch: 19 August)

Date Brightness Start Highest point End Pass type
(mag) Time Alt. Az. Time Alt. Az. Time Alt. Az.
19 Aug - 11:51:59 10° SSW 11:55:00 34° SE 11:58:00 10° E daylight
19 Aug - 13:28:05 10° W 13:31:22 65° NNW 13:34:38 10° ENE daylight
19 Aug - 15:04:55 10° WNW 15:08:07 48° N 15:11:19 10° E daylight
19 Aug - 16:41:28 10° WNW 16:44:45 75° SSW 16:48:00 10° ESE daylight
19 Aug - 18:18:44 10° W 18:20:47 16° SW 18:22:48 10° S daylight
20 Aug - 11:00:19 10° SSW 11:02:54 21° SE 11:05:28 10° E daylight
20 Aug - 12:35:46 10° WSW 12:39:03 87° NNW 12:42:21 10° ENE daylight
20 Aug - 14:12:34 10° WNW 14:15:45 47° N 14:18:56 10° ENE daylight
20 Aug - 15:49:11 10° WNW 15:52:28 77° NNE 15:55:45 10° ESE daylight
20 Aug - 17:25:58 10° W 17:28:43 25° SW 17:31:27 10° SSE daylight
21 Aug - 10:09:15 10° SSE 10:10:50 13° SE 10:12:26 10° ESE daylight
21 Aug - 11:43:32 10° SW 11:46:48 64° SSE 11:50:03 10° ENE daylight
21 Aug - 13:20:09 10° W 13:23:22 50° N 13:26:35 10° ENE daylight
21 Aug - 14:56:54 10° WNW 15:00:09 59° NNE 15:03:23 10° E daylight
21 Aug - 16:33:28 10° WNW 16:36:34 40° SSW 16:39:40 10° SE daylight
22 Aug - 10:51:28 10° SW 10:54:35 40° SSE 10:57:41 10° ENE daylight
22 Aug - 12:27:45 10° W 12:31:01 60° NNW 12:34:15 10° ENE daylight
22 Aug - 14:04:34 10° WNW 14:07:46 50° N 14:10:59 10° E daylight
22 Aug - 15:41:05 10° WNW 15:44:21 64° SSW 15:47:35 10° SE daylight
22 Aug - 17:18:42 10° WSW 17:20:18 13° SW 17:21:54 10° SSW daylight
23 Aug - 09:59:39 10° SSW 10:02:25 25° SE 10:05:10 10° E daylight
23 Aug - 11:35:22 10° WSW 11:38:39 78° NNW 11:41:57 10° ENE daylight
23 Aug - 13:12:10 10° WNW 13:15:22 47° N 13:18:33 10° ENE daylight
23 Aug - 14:48:46 10° WNW 14:52:03 86° NNE 14:55:20 10° ESE daylight
23 Aug - 16:25:40 10° W 16:28:14 21° SW 16:30:47 10° SSE daylight
24 Aug - 09:08:15 10° S 09:10:18 16° SE 09:12:20 10° E daylight
24 Aug - 10:43:04 10° WSW 10:46:20 74° SSE 10:49:37 10° ENE daylight
24 Aug - 12:19:44 10° W 12:22:57 48° N 12:26:10 10° ENE daylight
24 Aug - 13:56:26 10° WNW 13:59:42 64° NNE 14:02:58 10° E daylight
24 Aug - 15:33:03 10° W 15:36:05 34° SSW 15:39:04 10° SSE daylight
25 Aug - 09:50:53 10° SW 09:54:03 47° SSE 09:57:14 10° ENE daylight
25 Aug - 11:27:17 10° W 11:30:32 55° NNW 11:33:46 10° ENE daylight
25 Aug - 13:04:04 10° WNW 13:07:18 52° N 13:10:32 10° E daylight
25 Aug - 14:40:37 10° WNW 14:43:50 55° SSW 14:47:02 10° SE daylight
25 Aug - 16:18:53 10° WSW 16:19:42 11° SW 16:20:33 10° SSW daylight
26 Aug - 08:58:55 10° SSW 09:01:50 29° SE 09:04:45 10° E daylight
26 Aug - 10:34:51 10° WSW 10:38:08 70° NNW 10:41:26 10° ENE daylight
26 Aug - 12:11:40 10° WNW 12:14:52 47° N 12:18:04 10° E daylight
26 Aug - 13:48:13 10° WNW 13:51:31 84° SSW 13:54:48 10° ESE daylight
26 Aug - 15:25:18 10° W 15:27:37 18° SW 15:29:56 10° S daylight
27 Aug - 08:07:18 10° S 08:09:39 18° SE 08:12:01 10° E daylight
27 Aug - 09:42:28 10° WSW 09:45:45 84° SSE 09:49:03 10° ENE daylight
27 Aug - 11:19:13 10° W 11:22:24 47° N 11:25:37 10° ENE daylight
27 Aug - 12:55:52 10° WNW 12:59:09 71° NNE 13:02:25 10° ESE daylight
27 Aug - 14:32:33 10° W 14:35:27 29° SW 14:38:20 10° SSE daylight
28 Aug - 07:16:34 10° SSE 07:17:32 11° SE 07:18:30 10° ESE daylight
28 Aug - 08:50:12 10° SW 08:53:25 55° SSE 08:56:40 10° ENE daylight
28 Aug - 10:26:43 10° W 10:29:57 52° N 10:33:11 10° ENE daylight
28 Aug - 12:03:28 10° WNW 12:06:43 56° N 12:09:57 10° E daylight
28 Aug - 13:40:01 10° WNW 13:43:11 47° SSW 13:46:21 10° SE daylight
